[[{"header":{"parameterUnit":"m.s-1","parameterCategory":1,"la1":30.2991,"la2":30.254,"lo1":-89.0895,"lo2":-89.0444,"dy":0.0017,"dx":0.0017,"nx":28,"ny":28,"refTime":"2025-07-09T21:00:00:Z","depth":0,"parameterNumber":2,"parameterNumberName":"U-component_of_WINDS"},"data":[0,0,0,0,0,0,0,0,0,0,0,0,0,0,0,0,0,0,0,0,0,0,0,0,0,0,0,0,0,0,0,0,0,0,0,0,0,0,0,0,0,0,0,0,0,0,0,0,0,0,0,0,0,0,0,0,0,0,5.1406,5.1408,0,5.1586,5.1588,5.159,5.1525,5.1521,5.1517,5.1513,5.1702,5.171,5.1719,0,0,0,0,0,0,0,0,0,0,0,0,0,5.1006,5.1014,5.1406,5.1408,5.141,5.1586,5.1588,5.1591,5.1525,5.1521,5.1516,5.1511,5.1699,5.1709,5.172,0,0,0,0,0,0,0,0,0,0,0,0,0,5.1183,5.1017,5.1405,5.1399,5.14,5.1585,5.1588,5.1591,5.1527,5.152,5.1514,5.1509,5.1695,5.1708,5.1721,5.1925,0,0,5.1762,5.1768,0,0,0,0,0,0,0,0,5.1173,5.1198,5.1397,5.1399,5.1401,5.1527,5.1517,5.1704,5.1528,5.1479,5.1513,5.1506,5.1649,5.1665,5.1713,5.1934,5.1942,5.1763,5.1771,5.1777,5.1781,0,0,0,0,0,0,0,5.1161,5.1189,5.1477,5.14,5.1403,5.1387,5.1406,5.1552,5.1596,5.1482,5.1478,5.15,5.1649,5.17,5.1717,5.1945,5.1763,5.1774,5.1783,5.1788,5.234,5.2347,0,0,0,0,0,0,5.1147,5.118,5.1471,5.1482,5.1269,5.1399,5.142,5.1493,5.1594,5.1604,5.1505,5.1496,5.1681,5.1701,5.1723,5.1967,5.1777,5.1789,5.1797,5.2334,5.2342,5.2349,0,0,0,0,0,0,5.1139,5.1174,5.1464,5.133,5.1366,5.1413,5.1495,5.1499,5.1551,5.1611,5.1619,5.155,5.1677,5.1705,5.1875,5.1972,5.1795,5.1807,5.2326,5.2336,5.2346,5.2457,0,0,0,0,0,0,5.1128,5.1171,5.1249,5.1332,5.1373,5.1612,5.1501,5.1507,5.1573,5.1564,5.1655,5.1664,5.1674,5.1855,5.1888,5.1987,5.1817,5.2317,5.233,5.2342,5.2444,5.2469,5.249,0,0,0,0,0,5.1114,5.1275,5.1253,5.1289,5.1471,5.1618,5.1642,5.1648,5.1581,5.166,5.1698,5.1661,5.1957,5.1873,5.1909,5.2014,5.2311,5.2327,5.2341,5.2434,5.2464,5.249,0,0,0,0,0,0,5.1204,5.1285,5.1263,5.1455,5.153,5.1607,5.1706,5.168,5.1777,5.1764,5.1769,5.1791,5.1965,5.2007,5.1913,5.2216,5.2124,5.2147,5.2182,5.2211,5.2234,5.222,5.1828,0,0,0,0,0,5.1246,5.1357,5.1423,5.1587,5.1625,5.1659,5.1724,5.1722,5.18,5.1832,5.1883,5.1961,5.2071,5.2144,5.2249,5.245,5.2468,5.254,5.2563,5.2582,5.2601,5.2709,5.2741,5.2399,5.2399,5.2399,0,0,5.1334,5.1393,5.1463,5.1606,5.1664,5.1779,5.1686,5.1814,5.1899,5.1852,5.2014,5.2055,5.2142,5.2328,5.2413,5.2369,5.27,5.2601,5.2615,5.2625,5.2728,5.276,5.2789,5.2409,5.2407,5.2406,0,0,5.1554,5.161,5.1751,5.181,5.1897,5.1919,5.1953,5.2033,5.2057,5.222,5.2186,5.2289,5.2479,5.2542,5.2599,5.284,5.2809,5.2874,5.2994,5.3099,5.3126,5.315,5.3234,5.3264,5.2894,5.2894,5.2894,0,5.1653,5.1825,5.1827,5.1956,5.2019,5.1979,5.2122,5.218,5.2298,5.2343,5.2291,5.2527,5.2583,5.2782,5.284,5.2889,5.2927,5.2864,5.3122,5.3146,5.3168,5.3248,5.328,5.2901,5.2901,5.29,5.2899,0,5.1941,5.2061,5.2164,5.2277,5.2352,5.2488,5.251,5.2586,5.2578,5.2604,5.277,5.2836,5.2952,5.3,5.2994,5.3198,5.3167,5.3119,5.3026,5.3208,5.3283,5.3314,5.2912,5.2909,5.2907,5.2905,0,0,5.2224,5.2333,5.2371,5.2421,5.2514,5.2606,5.274,5.2851,5.2915,5.2998,5.3109,5.327,5.3225,5.329,5.329,5.3383,5.3566,5.3323,5.3325,5.3364,5.3793,5.3827,5.3863,5.3547,5.3553,5.3557,5.3785,0,5.2449,5.2681,5.2686,5.2898,5.3008,5.2971,5.3087,5.3156,5.3185,5.3282,5.3314,5.3426,5.336,5.3398,5.3488,5.3525,5.3652,5.3509,5.365,5.3655,5.3627,5.3903,5.394,5.4152,5.3815,5.382,5.3823,0,5.2744,5.2833,5.3056,5.313,5.3176,5.328,5.3381,5.3475,5.3553,5.3567,5.3638,5.3625,5.376,5.3664,5.385,5.3752,5.381,5.3837,5.3846,5.3858,5.3749,5.3921,5.422,5.4251,5.387,5.3866,5.3863,0,5.2924,5.3101,5.3256,5.33,5.3391,5.3465,5.3506,5.3578,5.3644,5.3733,5.3776,5.3881,5.3938,5.4019,5.4034,5.3963,5.4221,5.4126,5.4236,5.4235,5.4291,5.4287,5.4601,5.4331,5.4331,5.433,5.4329,0,5.3175,5.3313,5.3338,5.3434,5.3586,5.359,5.3742,5.3778,5.3841,5.3943,5.3919,5.4015,5.4029,5.4129,5.4142,5.4293,5.432,5.4335,5.4336,5.4336,5.4334,5.4373,5.4359,5.4338,5.4336,5.4335,5.4333,0,5.3403,5.3426,5.3592,5.3664,5.3685,5.3794,5.3856,5.3947,5.3972,5.4101,5.4132,5.4171,5.4287,5.431,5.4449,5.4457,5.4636,5.4624,5.4609,5.4608,5.4715,5.4704,5.5065,5.5111,5.4812,5.4815,5.4817,0,5.3561,5.3665,5.3747,5.3812,5.3857,5.3964,5.403,5.4038,5.4108,5.4203,5.4283,5.4396,5.4486,5.4674,5.4715,5.482,5.4809,5.4928,5.4825,5.4821,5.4809,5.4802,5.4811,5.4948,5.4951,5.4954,5.4956,0,5.3838,5.3843,5.3939,5.4038,5.4118,5.4197,5.4272,5.4328,5.4346,5.4426,5.4543,5.4613,5.4752,5.4864,5.4969,5.5012,5.4987,5.4988,5.5018,5.5019,5.5005,5.5012,5.4662,5.498,5.4977,5.4975,5.4974,5.4973,5.4034,5.4124,5.4195,5.4302,5.4359,5.4429,5.4517,5.4552,5.4649,5.4762,5.4761,5.4889,5.4962,5.5099,5.5149,5.5249,5.5212,5.5257,5.5268,5.5278,5.5287,5.499,5.5269,5.5268,5.5267,5.5267,5.5266,0,5.4308,5.4351,5.4449,5.4554,5.4638,5.4605,5.4686,5.4759,5.4871,5.4941,5.5029,5.5163,5.5271,5.532,5.5426,5.5497,5.5488,5.5525,5.5519,5.5529,5.5316,5.5278,5.553,5.553,5.553,5.553,5.553,5.5529,5.446,5.461,5.4623,5.48,5.4843,5.4966,5.5015,5.5079,5.5134,5.5284,5.5372,5.5403,5.5464,5.5575,5.5672,5.5684,5.5723,5.5765,5.5771,5.5571,5.5544,5.5519,5.5483,5.5774,5.5774,5.5975,5.5977,5.5979]},{"header":{"parameterUnit":"m.s-1","parameterCategory":1,"la1":30.2991,"la2":30.254,"lo1":-89.0895,"lo2":-89.0444,"dy":0.0017,"dx":0.0017,"nx":28,"ny":28,"refTime":"2025-07-09T21:00:00:Z","depth":0,"parameterNumber":3,"parameterNumberName":"V-component_of_WINDS"},"data":[0,0,0,0,0,0,0,0,0,0,0,0,0,0,0,0,0,0,0,0,0,0,0,0,0,0,0,0,0,0,0,0,0,0,0,0,0,0,0,0,0,0,0,0,0,0,0,0,0,0,0,0,0,0,0,0,0,0,1.5331,1.5331,0,1.5373,1.5373,1.5374,1.5351,1.5349,1.5348,1.5347,1.539,1.5392,1.5394,0,0,0,0,0,0,0,0,0,0,0,0,0,1.523,1.5232,1.5331,1.5331,1.5332,1.5372,1.5373,1.5374,1.5351,1.5349,1.5348,1.5347,1.5389,1.5392,1.5395,0,0,0,0,0,0,0,0,0,0,0,0,0,1.5273,1.5232,1.5331,1.5325,1.5325,1.5372,1.5373,1.5374,1.5351,1.5349,1.5348,1.5346,1.5389,1.5392,1.5395,1.545,0,0,1.5405,1.5407,0,0,0,0,0,0,0,0,1.527,1.5276,1.5326,1.5326,1.5326,1.5355,1.5353,1.5399,1.5352,1.5341,1.5347,1.5345,1.538,1.5384,1.5395,1.5452,1.5454,1.5405,1.5407,1.5409,1.541,0,0,0,0,0,0,0,1.5267,1.5274,1.5347,1.5326,1.5326,1.532,1.5325,1.5362,1.537,1.5342,1.534,1.5346,1.5379,1.5392,1.5396,1.5454,1.5405,1.5408,1.541,1.5412,1.5556,1.5558,0,0,0,0,0,0,1.5265,1.5272,1.5346,1.5348,1.5293,1.5323,1.5328,1.5347,1.5369,1.5371,1.5347,1.5345,1.5387,1.5392,1.5397,1.5462,1.5409,1.5412,1.5414,1.5554,1.5556,1.5558,0,0,0,0,0,0,1.5263,1.5272,1.5344,1.531,1.5319,1.5327,1.5348,1.5349,1.5361,1.5373,1.5374,1.5359,1.5386,1.5393,1.5437,1.5463,1.5413,1.5416,1.5552,1.5555,1.5557,1.5593,0,0,0,0,0,0,1.526,1.5271,1.5292,1.5311,1.5321,1.5383,1.535,1.5351,1.5367,1.5364,1.5384,1.5386,1.5385,1.5432,1.544,1.5467,1.5419,1.555,1.5553,1.5557,1.5589,1.5596,1.5603,0,0,0,0,0,1.5256,1.5301,1.5294,1.5303,1.5348,1.5385,1.5391,1.5389,1.537,1.5391,1.5398,1.5385,1.5459,1.5436,1.5445,1.5474,1.5548,1.5552,1.5556,1.5586,1.5595,1.5602,0,0,0,0,0,0,1.5286,1.5303,1.5295,1.5347,1.5365,1.5381,1.5408,1.5398,1.5422,1.5418,1.5415,1.542,1.5465,1.5474,1.5448,1.5527,1.55,1.5507,1.552,1.5529,1.5535,1.5532,1.5422,0,0,0,0,0,1.5299,1.5328,1.5341,1.5386,1.5395,1.54,1.5416,1.5413,1.5431,1.5438,1.5449,1.5466,1.5493,1.5511,1.5537,1.559,1.5593,1.5614,1.5621,1.5626,1.5631,1.5659,1.5668,1.5572,1.5572,1.5572,0,0,1.5326,1.5338,1.5357,1.5392,1.5405,1.5435,1.5406,1.5439,1.5461,1.5443,1.5485,1.5493,1.5512,1.5561,1.5583,1.557,1.5658,1.5631,1.5635,1.5638,1.5664,1.5673,1.5681,1.5575,1.5574,1.5574,0,0,1.5389,1.5402,1.544,1.5453,1.5473,1.5476,1.5485,1.5502,1.5507,1.5548,1.5535,1.5561,1.5608,1.5622,1.5635,1.5701,1.569,1.5709,1.5744,1.5771,1.5779,1.5785,1.5808,1.5817,1.5715,1.5715,1.5715,0,1.542,1.5464,1.5461,1.5494,1.5509,1.5494,1.5532,1.5545,1.5572,1.5583,1.5568,1.5625,1.5637,1.5688,1.5704,1.5715,1.5725,1.5708,1.5778,1.5785,1.5791,1.5813,1.5821,1.5717,1.5717,1.5717,1.5716,0,1.55,1.5531,1.5559,1.5585,1.5604,1.5639,1.564,1.5659,1.5654,1.5658,1.57,1.5714,1.5741,1.5753,1.5748,1.5802,1.5794,1.5778,1.5751,1.5802,1.5823,1.5831,1.572,1.5719,1.5719,1.5718,0,0,1.5585,1.5608,1.5618,1.5629,1.5649,1.5673,1.5707,1.5733,1.5749,1.5768,1.5796,1.5835,1.582,1.5835,1.5832,1.5856,1.5906,1.5837,1.5837,1.5849,1.5965,1.5977,1.5987,1.5898,1.59,1.5901,1.5964,0,1.565,1.571,1.5707,1.5763,1.579,1.5775,1.5805,1.582,1.5824,1.5847,1.5852,1.5879,1.5858,1.5867,1.5889,1.5895,1.5929,1.5891,1.5924,1.5925,1.592,1.5998,1.601,1.6069,1.5972,1.5973,1.5974,0,1.5734,1.5754,1.5813,1.5827,1.5839,1.5866,1.5889,1.5912,1.5928,1.5929,1.5945,1.5937,1.5971,1.5942,1.5988,1.5961,1.5975,1.5979,1.5981,1.5985,1.5953,1.6003,1.6087,1.6096,1.5987,1.5986,1.5985,0,1.5789,1.5832,1.5872,1.5882,1.59,1.5919,1.5927,1.5941,1.5957,1.5977,1.5987,1.601,1.6023,1.6041,1.604,1.6019,1.6086,1.6058,1.6087,1.6087,1.6103,1.6102,1.619,1.6111,1.6111,1.6111,1.6111,0,1.5862,1.5898,1.5897,1.5922,1.5962,1.5957,1.5997,1.6003,1.6015,1.604,1.6028,1.6052,1.6049,1.6072,1.6071,1.6108,1.6114,1.6116,1.6115,1.6117,1.6117,1.6126,1.6122,1.6113,1.6113,1.6112,1.6112,0,1.5931,1.5932,1.5975,1.5987,1.5991,1.602,1.6031,1.6054,1.6056,1.6088,1.6095,1.6099,1.6126,1.6126,1.6157,1.6156,1.6201,1.6196,1.6196,1.6195,1.6225,1.6222,1.6322,1.6335,1.6248,1.6248,1.6249,0,1.5977,1.6005,1.602,1.6036,1.6045,1.6071,1.6086,1.6082,1.6099,1.6118,1.6138,1.6164,1.6184,1.6228,1.6233,1.6256,1.6251,1.6285,1.6255,1.6255,1.6251,1.625,1.6252,1.6291,1.6292,1.6292,1.6293,0,1.6059,1.6058,1.6081,1.6103,1.6122,1.6139,1.6156,1.6169,1.6167,1.6186,1.6213,1.6228,1.6259,1.6284,1.6306,1.6314,1.6303,1.6302,1.631,1.6313,1.6311,1.6312,1.6212,1.63,1.63,1.6299,1.6299,1.6298,1.6118,1.6141,1.6155,1.6181,1.6192,1.6207,1.6229,1.6233,1.6256,1.6281,1.6277,1.6307,1.632,1.6348,1.6358,1.6381,1.6369,1.6381,1.6384,1.6387,1.639,1.6307,1.6385,1.6385,1.6384,1.6384,1.6384,0,1.6199,1.6207,1.623,1.6253,1.6272,1.6259,1.6276,1.6293,1.632,1.6334,1.6353,1.6384,1.6408,1.6414,1.6437,1.6454,1.6449,1.646,1.6459,1.646,1.6399,1.639,1.6463,1.6463,1.6463,1.6463,1.6463,1.6463,1.6243,1.6282,1.6282,1.6325,1.6332,1.6361,1.6372,1.6385,1.6396,1.643,1.645,1.6454,1.6464,1.6487,1.6508,1.6509,1.6518,1.6531,1.653,1.6473,1.6465,1.6457,1.6448,1.6533,1.6533,1.6589,1.6589,1.659]}]]